DW6455 Weather Reports


Display with metric or nautical units.
time (UTC)temp
F
wind
direction
speed
MPH
gust
MPH
rain 1hr
in
rain 24hr
in
rain mn
in
humidity
%
barometer
mb
20260831030520 61 158 4.0 8.0 0.00 0.00 0.00 1 1005.2
20260831025520 61 158 3.0 9.0 0.00 0.00 0.00 1 1005.2
20260831024520 61 158 4.0 8.0 0.00 0.00 0.00 1 1005.3
20260831023520 61 135 5.0 10.0 0.00 0.00 0.00 1 1005.3
20260831022520 61 135 5.0 9.0 0.00 0.00 0.00 1 1005.3
20260831021520 61 158 4.0 10.0 0.00 0.00 0.00 1 1005.3
20260831020540 60 135 6.0 12.0 0.00 0.00 0.00 1 1005.4
20260831000520 61 158 1.0 5.0 0.00 0.00 0.00 1 1006.5
20260830235520 60 0.0 0.0 0.00 0.00 0.00 1 1006.5
20260830234520 60 0.0 0.0 0.00 0.00 0.00 1 1006.7
20260830233520 60 0.0 0.0 0.00 0.00 0.00 1 1006.7
20260830232520 60 0.0 0.0 0.00 0.00 0.00 1 1006.8
20260830231520 60 0.0 0.0 0.00 0.00 0.00 1 1006.8
20260830230540 60 0.0 3.0 0.00 0.00 0.00 1 1006.9
20260830210520 60 248 1.0 9.0 0.00 0.01 0.00 1 1007.0
20260830205520 60 203 2.0 10.0 0.00 0.01 0.01 1 1007.0
20260830204520 60 203 2.0 10.0 0.00 0.01 0.01 1 1006.8
20260830203520 60 225 1.0 5.0 0.00 0.01 0.01 1 1006.8
20260830202520 60 0.0 3.0 0.00 0.01 0.01 1 1006.7
20260830201520 60 0.0 4.0 0.00 0.01 0.01 1 1006.6
20260830200520 60 203 1.0 6.0 0.00 0.01 0.01 1 1006.6
20260830195520 60 203 1.0 4.0 0.00 0.01 0.01 1 1006.7
20260830194520 60 225 1.0 5.0 0.00 0.01 0.01 1 1006.6
20260830193520 60 203 2.0 6.0 0.00 0.01 0.01 1 1006.5
20260830192520 60 203 1.0 9.0 0.00 0.01 0.01 1 1006.5
20260830191520 60 248 1.0 6.0 0.00 0.01 0.01 1 1006.4
20260830190520 60 225 1.0 4.0 0.00 0.01 0.01 1 1006.4
20260830185520 60 225 2.0 7.0 0.00 0.01 0.01 1 1006.4
20260830184521 61 203 1.0 5.0 0.00 0.01 0.01 1 1006.3
20260830183520 61 0.0 0.0 0.00 0.01 0.01 1 1006.3
20260830182520 61 0.0 4.0 0.00 0.01 0.01 1 1006.3
20260830181520 61 0.0 0.0 0.00 0.01 0.01 1 1006.2
20260830180520 62 0.0 0.0 0.00 0.01 0.01 1 1006.2
20260830175600 62 0.0 0.0 0.00 0.01 0.01 1 1006.1
20260830155520 64 180 1.0 6.0 0.00 0.01 0.01 1 1005.7
20260830154520 64 158 1.0 7.0 0.00 0.01 0.01 1 1005.7
20260830153520 64 158 2.0 7.0 0.00 0.01 0.01 1 1005.6
20260830152520 64 135 2.0 7.0 0.00 0.01 0.01 1 1005.6
20260830151520 64 158 1.0 8.0 0.00 0.01 0.01 1 1005.6
20260830150520 64 158 3.0 6.0 0.00 0.01 0.01 1 1005.8
20260830145520 64 158 2.0 6.0 0.00 0.01 0.01 1 1005.9
20260830144520 64 180 2.0 8.0 0.00 0.01 0.01 1 1005.8
20260830143520 64 203 2.0 7.0 0.00 0.01 0.01 1 1005.8
20260830142520 64 158 1.0 5.0 0.00 0.01 0.01 1 1005.8
20260830141520 64 135 2.0 5.0 0.00 0.01 0.01 1 1005.9
20260830140520 64 135 3.0 8.0 0.00 0.01 0.01 1 1005.9
20260830135520 64 135 4.0 10.0 0.00 0.01 0.01 1 1005.9
20260830134520 64 135 4.0 9.0 0.00 0.01 0.01 1 1006.0
20260830133520 64 158 4.0 10.0 0.00 0.01 0.01 1 1006.0
20260830132520 64 135 4.0 10.0 0.00 0.01 0.01 1 1005.9
20260830131520 64 158 2.0 6.0 0.00 0.01 0.01 1 1005.9
20260830130520 64 0.0 4.0 0.00 0.01 0.01 1 1005.9
20260830125520 64 0.0 4.0 0.00 0.01 0.01 1 1005.9
20260830124520 64 0.0 0.0 0.00 0.01 0.01 1 1006.0
20260830123520 63 0.0 0.0 0.00 0.01 0.01 1 1006.0
20260830122520 63 0.0 1.0 0.00 0.01 0.01 1 1006.0
20260830121520 64 158 2.0 6.0 0.00 0.01 0.01 3 1006.0
20260830120520 64 135 3.0 8.0 0.00 0.01 0.01 12 1006.0
20260830115520 64 158 1.0 6.0 0.00 0.01 0.01 18 1006.0
20260830114520 64 135 3.0 8.0 0.00 0.01 0.01 28 1006.1
20260830113540 65 180 2.0 7.0 0.00 0.01 0.01 38 1006.2
20260830103520 64 135 3.0 9.0 0.00 0.01 0.01 12 1006.3
20260830102520 64 135 5.0 9.0 0.00 0.01 0.01 7 1006.4
20260830101520 63 158 4.0 8.0 0.00 0.01 0.01 1 1006.3
20260830100520 63 158 4.0 8.0 0.00 0.01 0.01 1 1006.4
20260830095520 64 158 4.0 11.0 0.00 0.01 0.01 1 1006.4
20260830094520 64 158 4.0 9.0 0.00 0.01 0.01 1 1006.4
20260830093520 63 135 4.0 8.0 0.00 0.01 0.01 1 1006.3
20260830092520 63 135 2.0 7.0 0.00 0.01 0.01 1 1006.3
20260830091520 63 135 2.0 8.0 0.00 0.01 0.01 1 1006.3
20260830090520 63 180 1.0 10.0 0.00 0.01 0.01 1 1006.3
20260830085520 62 135 1.0 6.0 0.00 0.01 0.01 1 1006.4
20260830084520 62 180 1.0 5.0 0.00 0.01 0.01 1 1006.3
20260830083520 62 158 3.0 9.0 0.00 0.01 0.01 1 1006.3
20260830082520 62 158 3.0 8.0 0.00 0.01 0.01 1 1006.3
20260830081520 63 158 2.0 8.0 0.00 0.01 0.01 1 1006.3
20260830080520 62 135 5.0 12.0 0.00 0.01 0.01 1 1006.1
20260830075520 62 135 3.0 10.0 0.00 0.01 0.01 1 1006.2
20260830074520 62 135 5.0 11.0 0.00 0.01 0.01 1 1006.2
20260830073520 62 135 5.0 9.0 0.00 0.01 0.01 1 1006.2
20260830072520 62 180 3.0 8.0 0.00 0.01 0.01 1 1006.2
20260830071521 62 158 4.0 10.0 0.00 0.01 0.01 1 1006.2
20260830070520 62 158 3.0 9.0 0.00 0.01 0.01 1 1006.2
20260830065521 61 158 2.0 7.0 0.00 0.01 0.01 1 1006.2
20260830064520 61 180 2.0 6.0 0.00 0.01 0.01 1 1006.2
20260830063520 61 203 1.0 6.0 0.00 0.01 0.01 1 1006.3
20260830062520 61 158 2.0 6.0 0.00 0.01 0.01 1 1006.2
20260830061543 61 158 1.0 5.0 0.00 0.01 0.01 1 1006.2
20260830051520 60 135 3.0 9.0 0.00 0.01 0.01 1 1006.2
20260830050520 60 135 4.0 12.0 0.00 0.01 0.01 1 1006.1
20260830045520 60 135 5.0 13.0 0.00 0.01 0.01 1 1006.1
20260830044520 60 135 5.0 12.0 0.00 0.01 0.01 1 1006.1
20260830043520 60 135 5.0 11.0 0.00 0.01 0.01 1 1006.1
20260830042520 60 135 5.0 9.0 0.00 0.01 0.01 1 1006.0
20260830041520 60 135 5.0 10.0 0.00 0.01 0.01 1 1006.0
20260830040520 60 135 5.0 9.0 0.00 0.01 0.01 1 1006.0
20260830035520 60 158 6.0 11.0 0.00 0.01 0.01 1 1006.1
20260830034520 60 135 7.0 13.0 0.00 0.01 0.01 1 1006.1